(146418) = 1999 AZ17 = 2001 QG219

Discovered at Kitt Peak on 2001-08-23 by Spacewatch.

Orbit

Orbit type: Main Belt

Note: WebGL enabled browser required.

epoch2024-03-31.0
epoch JD2460400.5
perihelion date2022-12-04.72837
perihelion JD2459918.22837
argument of perihelion (°)81.22714
ascending node (°)286.83083
inclination (°)1.30913
eccentricity0.1302809
perihelion distance (AU)2.2597809
Tisserand w.r.t. Jupiter3.4
ΔV w.r.t. Earth (km/sec)9.4
semimajor axis (AU)2.5982884
mean anomaly (°)113.49181
mean daily motion (°/day)0.23532760
aphelion distance (AU)2.937
period (years)4.19
P-vector [x]0.98987986
P-vector [y]0.11955782
P-vector [z]0.07644470
Q-vector [x]-0.14021291
Q-vector [y]0.90702692
Q-vector [z]0.39704220
absolute magnitude16.51
phase slope0.15
uncertainty0
referenceMPEC 2024-C145
observations used700
oppositions18
arc length (days)9621
first opposition used1997
last opposition used2024
residual rms (arc-secs)0.67
perturbers coarse indicatorM-v
perturbers precise indicator003Ek
first observation date used1997-10-10.0
last observation date used2024-02-12.0
computer nameMPCLINUX
JD of orbit computation2456966.772806
perihelion JD uncertainty (days)7.2273E-05
argument of perihelion uncertainty (°)1.9412E-04
ascending node uncertainty (°)1.9325E-04
inclination uncertainty (°)4.2785E-06
eccentricity uncertainty 4.1870E-08
perihelion distance uncertainty (AU)1.0600E-07
Minimum Orbit Intersection Distances (in AU)
for orbit epoch: 2460200.5, reference: E2024-CE5
Mercury1.9024
Venus1.53692
Earth1.25831
Mars0.84737
Jupiter2.51797
Saturn6.41271
Uranus15.5315
Neptune27.5253

Observations

714 total observations over interval: 1997 10 10.24098 – 2024 02 12.274646
These data are available for download (format description).

Date (UT) J2000 RA J2000 Dec Magn Location Ref
1997 10 10.24098 00 01 09.23 +02 36 48.8 19.4 V 691 – Steward Observatory, Kitt Peak-Spacewatch MPS 79889
1997 10 10.26184 00 01 08.30 +02 36 42.9 19.2 V 691 – Steward Observatory, Kitt Peak-Spacewatch MPS 79889
1997 10 10.28285 00 01 07.32 +02 36 36.3 19.4 V 691 – Steward Observatory, Kitt Peak-Spacewatch MPS 79889
1999 01 11.43720 09 23 14.64 +14 34 17.7 20.9 V 691 – Steward Observatory, Kitt Peak-Spacewatch MPS 3675
1999 01 11.45876 09 23 13.68 +14 34 20.9 20.6 V 691 – Steward Observatory, Kitt Peak-Spacewatch MPS 3675
1999 01 11.48028 09 23 12.72 +14 34 24.8 20.8 V 691 – Steward Observatory, Kitt Peak-Spacewatch MPS 3675
1999 01 15.44604 09 20 11.96 +14 46 15.2 20.9 V 691 – Steward Observatory, Kitt Peak-Spacewatch MPS 3675
1999 01 15.46764 09 20 10.90 +14 46 18.8 20.9 V 691 – Steward Observatory, Kitt Peak-Spacewatch MPS 3675
1999 01 15.48918 09 20 09.85 +14 46 23.4 20.8 V 691 – Steward Observatory, Kitt Peak-Spacewatch MPS 3675
1999 01 23.41533 09 13 19.59 +15 13 25.8 20.6 V 691 – Steward Observatory, Kitt Peak-Spacewatch MPS 34079
1999 01 23.43680 09 13 18.37 +15 13 30.3 20.6 V 691 – Steward Observatory, Kitt Peak-Spacewatch MPS 34079
1999 01 23.45812 09 13 17.18 +15 13 34.9 20.4 V 691 – Steward Observatory, Kitt Peak-Spacewatch MPS 34079
2001 08 16.27498 22 27 16.35 -08 00 14.1 19.1   704 – Lincoln Laboratory ETS, New Mexico MPS 37855
2001 08 16.28720 22 27 15.72 -08 00 16.3 19.7   704 – Lincoln Laboratory ETS, New Mexico MPS 37855
2001 08 16.29957 22 27 15.14 -08 00 20.6 19.8   704 – Lincoln Laboratory ETS, New Mexico MPS 37855
2001 08 16.31182 22 27 14.53 -08 00 23.6 19.3   704 – Lincoln Laboratory ETS, New Mexico MPS 37855
2001 08 16.32404 22 27 13.85 -08 00 26.6 19.5   704 – Lincoln Laboratory ETS, New Mexico MPS 37855
2001 08 23.38766 22 21 21.13 -08 29 35.6 19.7 V 691 – Steward Observatory, Kitt Peak-Spacewatch MPS 34857
2001 08 23.40867 22 21 20.01 -08 29 41.0 19.7 V 691 – Steward Observatory, Kitt Peak-Spacewatch MPS 34857
2001 08 23.42967 22 21 18.89 -08 29 46.2 19.6 V 691 – Steward Observatory, Kitt Peak-Spacewatch MPS 34857
2001 08 27.23962 22 18 02.15 -08 46 23.9 18.7 R 699 – Lowell Observatory-LONEOS MPS 34857
2001 08 27.26311 22 18 00.93 -08 46 30.0   699 – Lowell Observatory-LONEOS MPS 34857
2001 08 27.28674 22 17 59.56 -08 46 37.7   699 – Lowell Observatory-LONEOS MPS 34857
2001 08 27.31018 22 17 58.29 -08 46 42.3   699 – Lowell Observatory-LONEOS MPS 34857
2001 09 12.19847 22 05 07.01 -09 53 23.5 19.1   704 – Lincoln Laboratory ETS, New Mexico MPS 34857
2001 09 12.22706 22 05 05.77 -09 53 30.9 19.5   704 – Lincoln Laboratory ETS, New Mexico MPS 34857
2001 09 12.25530 22 05 04.49 -09 53 36.7 19.4   704 – Lincoln Laboratory ETS, New Mexico MPS 34857
2004 04 13.31231 13 19 08.46 -10 29 49.6 20.6 V 691 – Steward Observatory, Kitt Peak-Spacewatch MPS 104225
2004 04 13.34099 13 19 06.90 -10 29 40.6 20.7 V 691 – Steward Observatory, Kitt Peak-Spacewatch MPS 104225
2004 04 13.36996 13 19 05.35 -10 29 31.5 20.4 V 691 – Steward Observatory, Kitt Peak-Spacewatch MPS 104225
2004 05 09.18655 12 59 33.17 -08 23 30.4 21.3 V 691 – Steward Observatory, Kitt Peak-Spacewatch MPS 106696
2004 05 09.21386 12 59 32.19 -08 23 23.8 21.3 V 691 – Steward Observatory, Kitt Peak-Spacewatch MPS 106696
2004 05 09.24134 12 59 31.20 -08 23 17.7 21.8 V 691 – Steward Observatory, Kitt Peak-Spacewatch MPS 106696
2005 06 30.39959 20 48 47.62 -17 25 47.8 18.4 V G96 – Mt. Lemmon Survey MPS 136910
2005 06 30.40488 20 48 47.59 -17 25 48.0 18.5 V G96 – Mt. Lemmon Survey MPS 136910
2005 06 30.41021 20 48 47.34 -17 25 51.2 20.0 V G96 – Mt. Lemmon Survey MPS 136910
2005 07 04.37226 20 46 36.18 -17 31 41.9 19.8   644 – Palomar Mountain/NEAT MPS 137399
2005 07 04.39876 20 46 35.16 -17 31 44.4 19.3   644 – Palomar Mountain/NEAT MPS 137399
2005 07 04.42183 20 46 34.31 -17 31 46.7 19.7   644 – Palomar Mountain/NEAT MPS 137399
2005 07 05.38316 20 45 58.87 -17 33 24.4 20.1 V 691 – Steward Observatory, Kitt Peak-Spacewatch MPS 137399
2005 07 05.40053 20 45 58.17 -17 33 26.4 20.0 V 691 – Steward Observatory, Kitt Peak-Spacewatch MPS 137399
2005 07 05.41791 20 45 57.48 -17 33 28.0 20.1 V 691 – Steward Observatory, Kitt Peak-Spacewatch MPS 137399
2005 07 09.34147 20 43 19.39 -17 40 54.7 20.0 V 691 – Steward Observatory, Kitt Peak-Spacewatch MPS 137917
2005 07 09.35881 20 43 18.60 -17 40 56.7 19.9 V 691 – Steward Observatory, Kitt Peak-Spacewatch MPS 137917
2005 07 09.37606 20 43 17.83 -17 40 59.1 19.8 V 691 – Steward Observatory, Kitt Peak-Spacewatch MPS 137917
2005 07 16.36323 20 37 49.71 -17 56 46.2 19.5 V 691 – Steward Observatory, Kitt Peak-Spacewatch MPS 138279
2005 07 16.38056 20 37 48.70 -17 56 48.5 20.0 V 691 – Steward Observatory, Kitt Peak-Spacewatch MPS 138279
2005 07 16.39789 20 37 47.79 -17 56 50.8 19.9 V 691 – Steward Observatory, Kitt Peak-Spacewatch MPS 138279
2005 09 30.09495 20 05 10.93 -19 18 24.9 20.2 V G96 – Mt. Lemmon Survey MPS 143541
2005 09 30.09936 20 05 11.04 -19 18 24.7 20.4 V G96 – Mt. Lemmon Survey MPS 143541
2005 09 30.10378 20 05 11.22 -19 18 24.3 21.0 V G96 – Mt. Lemmon Survey MPS 143541
2005 09 30.10819 20 05 11.36 -19 18 23.9 20.5 V G96 – Mt. Lemmon Survey MPS 143541
2006 12 09.40065 06 31 38.72 +23 53 47.6 20.4 V 691 – Steward Observatory, Kitt Peak-Spacewatch MPS 191844
2006 12 09.43550 06 31 36.71 +23 53 47.8 20.3 V 691 – Steward Observatory, Kitt Peak-Spacewatch MPS 191844
2006 12 09.45336 06 31 35.69 +23 53 48.3 20.3 V 691 – Steward Observatory, Kitt Peak-Spacewatch MPS 191844
2006 12 13.26962 06 27 56.03 +23 54 41.2 20.1 V 691 – Steward Observatory, Kitt Peak-Spacewatch MPS 191844
2006 12 13.28690 06 27 54.95 +23 54 41.5 20.1 V 691 – Steward Observatory, Kitt Peak-Spacewatch MPS 191844
2006 12 13.30417 06 27 53.90 +23 54 41.8 20.1 V 691 – Steward Observatory, Kitt Peak-Spacewatch MPS 191844
2006 12 14.33102 06 26 52.19 +23 54 52.9   704 – Lincoln Laboratory ETS, New Mexico MPS 406778
2006 12 14.37059 06 26 49.64 +23 54 54.2   704 – Lincoln Laboratory ETS, New Mexico MPS 406778
2006 12 25.18102 06 15 24.80 +23 55 03.6 19.7 V 691 – Steward Observatory, Kitt Peak-Spacewatch MPS 191844
2006 12 25.19833 06 15 23.64 +23 55 03.6 19.7 V 691 – Steward Observatory, Kitt Peak-Spacewatch MPS 191844
2006 12 25.21566 06 15 22.51 +23 55 03.6 19.8 V 691 – Steward Observatory, Kitt Peak-Spacewatch MPS 191844
2007 01 08.34080 06 01 00.69 +23 49 43.3 19.6 V G96 – Mt. Lemmon Survey MPS 196257
2007 01 08.34531 06 01 00.40 +23 49 43.0 19.4 V G96 – Mt. Lemmon Survey MPS 196257
2007 01 08.34983 06 01 00.15 +23 49 42.9 19.4 V G96 – Mt. Lemmon Survey MPS 196257
2007 01 08.35436 06 00 59.90 +23 49 42.7 20.0 V G96 – Mt. Lemmon Survey MPS 196257
2007 01 27.11797 05 48 11.74 +23 37 15.0 21.0 V 691 – Steward Observatory, Kitt Peak-Spacewatch MPS 198592
2007 01 27.12893 05 48 11.39 +23 37 14.4 21.1 V 691 – Steward Observatory, Kitt Peak-Spacewatch MPS 198592
2007 01 27.13971 05 48 11.15 +23 37 14.2 21.1 V 691 – Steward Observatory, Kitt Peak-Spacewatch MPS 198592
2008 03 02.36019 12 41 16.92 -06 25 46.1 21.1 V 691 – Steward Observatory, Kitt Peak-Spacewatch MPS 241854
2008 03 02.37782 12 41 16.23 -06 25 42.5 21.1 V 691 – Steward Observatory, Kitt Peak-Spacewatch MPS 241854
2008 03 02.39546 12 41 15.49 -06 25 39.3 20.8 V 691 – Steward Observatory, Kitt Peak-Spacewatch MPS 241854
2008 03 06.29869 12 38 44.92 -06 11 39.8 20.6 V 691 – Steward Observatory, Kitt Peak-Spacewatch MPS 241854
2008 03 06.31386 12 38 44.27 -06 11 35.7 20.8 V 691 – Steward Observatory, Kitt Peak-Spacewatch MPS 241854
2008 03 06.32904 12 38 43.64 -06 11 32.7 20.7 V 691 – Steward Observatory, Kitt Peak-Spacewatch MPS 241854
2008 03 09.33751 12 36 36.76 -05 59 26.6   691 – Steward Observatory, Kitt Peak-Spacewatch MPS 243389
2008 03 09.35283 12 36 36.16 -05 59 22.9   691 – Steward Observatory, Kitt Peak-Spacewatch MPS 243389
2008 03 09.36814 12 36 35.40 -05 59 19.2   691 – Steward Observatory, Kitt Peak-Spacewatch MPS 243389
2008 03 13.33799 12 33 35.86 -05 41 49.0 20.7 V 691 – Steward Observatory, Kitt Peak-Spacewatch MPS 243389
2008 03 13.35317 12 33 35.15 -05 41 44.4 20.6 V 691 – Steward Observatory, Kitt Peak-Spacewatch MPS 243389
